User: anonymous   Login
Location: Unspecified
(0.0000°N, 0.0000°E)
Time: 22:27:30
(UTC+00:00)
Language:

STARLINK-1080 - Orbit

View from above orbital plane
View from above orbital plane
View from above satellite
View from above satellite

Ground track
Ground track

The orbit is defined by the following mean orbital elements,

1 44961U          26145.58335647 +.00000000 +00000-0 -36589-2 0 00000
2 44961  53.0453 277.0619 0001341  71.9718 160.8958 15.66317628    02
Epoch (UTC): 25 May 2026 14:00:01
Eccentricity: 0.0001341
inclination: 53.0453°
perigee height: 369 km
apogee height: 370 km
right ascension of ascending node: 277.0619°
argument of perigee: 71.9718°
revolutions per day: 15.66317628
mean anomaly at epoch: 160.8958°

The dashed part of the orbit path shows where the satellite is in the earth's shadow,  

DLR